Time,TemperatureF,DewpointF,PressureIn,WindDirection,WindDirectionDegrees,WindSpeedMPH,WindSpeedGustMPH,Humidity,HourlyPrecipIn,Conditions,Clouds,dailyrainin,SoftwareType,DateUTC
2013-02-08 00:01:00,32.0,-15.0,-100.00,SW,234,2.0,7.0,12,0.00,,,-99.99,,2013-02-08 07:01:00,
2013-02-08 00:11:00,31.0,-14.0,-100.00,WSW,241,3.0,7.0,13,0.00,,,-99.99,,2013-02-08 07:11:00,
2013-02-08 00:21:00,31.0,-14.0,-100.00,WSW,237,6.0,11.0,13,0.00,,,-99.99,,2013-02-08 07:21:00,
2013-02-08 00:32:00,31.0,-13.0,-100.00,WSW,240,7.0,11.0,13,0.00,,,-99.99,,2013-02-08 07:32:00,
2013-02-08 00:42:00,32.0,-12.0,-100.00,WSW,257,4.0,9.0,14,0.00,,,-99.99,,2013-02-08 07:42:00,
2013-02-08 00:51:00,28.0,-9.0,-100.00,NW,322,2.0,11.0,19,0.00,,,-99.99,,2013-02-08 07:51:00,
2013-02-08 01:01:00,23.0,-7.0,-100.00,East,79,2.0,6.0,26,0.00,,,-99.99,,2013-02-08 08:01:00,
2013-02-08 01:11:00,22.0,-7.0,-100.00,SE,127,2.0,9.0,26,0.00,,,-99.99,,2013-02-08 08:11:00,
2013-02-08 01:21:00,23.0,-8.0,-100.00,South,169,1.0,6.0,25,0.00,,,-99.99,,2013-02-08 08:21:00,
2013-02-08 01:32:00,23.0,-8.0,-100.00,ESE,102,1.0,4.0,25,0.00,,,-99.99,,2013-02-08 08:32:00,
2013-02-08 01:41:00,24.0,-8.0,-100.00,SSE,150,4.0,8.0,24,0.00,,,-99.99,,2013-02-08 08:41:00,
2013-02-08 01:52:00,25.0,-7.0,-100.00,SSE,151,2.0,6.0,23,0.00,,,-99.99,,2013-02-08 08:52:00,
2013-02-08 02:03:00,25.0,-8.0,-100.00,SSE,152,2.0,4.0,23,0.00,,,-99.99,,2013-02-08 09:03:00,
2013-02-08 02:21:00,25.0,-7.0,-100.00,SE,127,1.0,5.0,24,0.00,,,-99.99,,2013-02-08 09:21:00,
2013-02-08 02:32:00,25.0,-8.0,-100.00,SSE,168,1.0,5.0,23,0.00,,,-99.99,,2013-02-08 09:32:00,
2013-02-08 02:40:00,23.0,-8.0,-100.00,SE,143,1.0,4.0,25,0.00,,,-99.99,,2013-02-08 09:40:00,
2013-02-08 02:42:00,25.0,-7.0,-100.00,SSW,196,0.0,2.0,23,0.00,,,-99.99,,2013-02-08 09:42:00,
2013-02-08 02:51:00,23.0,-8.0,-100.00,South,181,1.0,3.0,25,0.00,,,-99.99,,2013-02-08 09:51:00,
2013-02-08 03:01:00,23.0,-8.0,-100.00,SE,143,1.0,4.0,25,0.00,,,-99.99,,2013-02-08 10:01:00,
2013-02-08 03:11:00,23.0,-8.0,-100.00,SE,143,1.0,4.0,25,0.00,,,-99.99,,2013-02-08 10:11:00,
2013-02-08 03:22:00,23.0,-8.0,-100.00,SE,143,1.0,4.0,25,0.00,,,-99.99,,2013-02-08 10:22:00,
2013-02-08 03:31:00,23.0,-8.0,-100.00,SE,143,1.0,4.0,25,0.00,,,-99.99,,2013-02-08 10:31:00,
2013-02-08 07:52:00,26.0,5.0,-100.00,WNW,282,3.0,8.0,39,0.00,,,-99.99,,2013-02-08 14:52:00,
2013-02-08 08:02:00,26.0,6.0,-100.00,SW,215,1.0,4.0,42,0.00,,,-99.99,,2013-02-08 15:02:00,
2013-02-08 08:11:00,27.0,7.0,-100.00,SE,145,2.0,6.0,41,0.00,,,-99.99,,2013-02-08 15:11:00,
2013-02-08 08:22:00,29.0,7.0,-100.00,SSE,150,6.0,11.0,39,0.00,,,-99.99,,2013-02-08 15:22:00,
2013-02-08 08:32:00,30.0,7.0,-100.00,SE,136,6.0,13.0,37,0.00,,,-99.99,,2013-02-08 15:32:00,
2013-02-08 08:42:00,29.0,7.0,-100.00,SE,124,3.0,6.0,38,0.00,,,-99.99,,2013-02-08 15:42:00,
2013-02-08 08:52:00,29.0,9.0,-100.00,SE,138,3.0,5.0,42,0.00,,,-99.99,,2013-02-08 15:52:00,
2013-02-08 09:01:00,31.0,10.0,-100.00,SSE,160,6.0,9.0,41,0.00,,,-99.99,,2013-02-08 16:01:00,
2013-02-08 09:11:00,31.0,10.0,-100.00,SSE,148,6.0,9.0,41,0.00,,,-99.99,,2013-02-08 16:11:00,
2013-02-08 09:21:00,31.0,10.0,-100.00,SE,141,4.0,7.0,41,0.00,,,-99.99,,2013-02-08 16:21:00,
2013-02-08 09:32:00,29.0,9.0,-100.00,ENE,72,4.0,7.0,43,0.00,,,-99.99,,2013-02-08 16:32:00,
2013-02-08 09:42:00,29.0,9.0,-100.00,East,83,3.0,6.0,42,0.00,,,-99.99,,2013-02-08 16:42:00,
2013-02-08 09:51:00,31.0,10.0,-100.00,SE,138,5.0,11.0,41,0.00,,,-99.99,,2013-02-08 16:51:00,
2013-02-08 10:03:00,31.0,9.0,-100.00,SSE,151,7.0,10.0,39,0.00,,,-99.99,,2013-02-08 17:03:00,
2013-02-08 10:12:00,32.0,10.0,-100.00,SE,140,7.0,11.0,40,0.00,,,-99.99,,2013-02-08 17:12:00,
2013-02-08 10:22:00,33.0,9.0,-100.00,SE,144,6.0,9.0,38,0.00,,,-99.99,,2013-02-08 17:22:00,
2013-02-08 10:32:00,32.0,10.0,-100.00,SE,131,4.0,10.0,39,0.00,,,-99.99,,2013-02-08 17:32:00,
2013-02-08 10:42:00,33.0,9.0,-100.00,SE,138,7.0,11.0,37,0.00,,,-99.99,,2013-02-08 17:42:00,
2013-02-08 10:52:00,33.0,9.0,-100.00,SE,144,8.0,12.0,35,0.00,,,-99.99,,2013-02-08 17:52:00,
2013-02-08 11:02:00,34.0,9.0,-100.00,SSE,148,7.0,11.0,36,0.00,,,-99.99,,2013-02-08 18:02:00,
2013-02-08 11:12:00,34.0,9.0,-100.00,SE,144,6.0,10.0,35,0.00,,,-99.99,,2013-02-08 18:12:00,
2013-02-08 11:24:00,36.0,10.0,-100.00,SE,145,4.0,8.0,34,0.00,,,-99.99,,2013-02-08 18:24:00,
2013-02-08 11:34:00,36.0,10.0,-100.00,SE,124,3.0,7.0,34,0.00,,,-99.99,,2013-02-08 18:34:00,
2013-02-08 11:43:00,37.0,11.0,-100.00,NE,38,2.0,7.0,34,0.00,,,-99.99,,2013-02-08 18:43:00,
2013-02-08 11:52:00,38.0,11.0,-100.00,ENE,59,1.0,7.0,31,0.00,,,-99.99,,2013-02-08 18:52:00,
2013-02-08 12:02:00,36.0,9.0,-100.00,SE,143,4.0,7.0,33,0.00,,,-99.99,,2013-02-08 19:02:00,
2013-02-08 12:11:00,36.0,10.0,-100.00,SE,136,4.0,7.0,34,0.00,,,-99.99,,2013-02-08 19:11:00,
2013-02-08 12:22:00,37.0,10.0,-100.00,East,89,2.0,6.0,32,0.00,,,-99.99,,2013-02-08 19:22:00,
2013-02-08 12:32:00,37.0,11.0,-100.00,ENE,76,1.0,6.0,33,0.00,,,-99.99,,2013-02-08 19:32:00,
2013-02-08 12:42:00,37.0,11.0,-100.00,NNE,28,1.0,5.0,33,0.00,,,-99.99,,2013-02-08 19:42:00,
2013-02-08 12:52:00,37.0,11.0,-100.00,NE,34,1.0,3.0,33,0.00,,,-99.99,,2013-02-08 19:52:00,
2013-02-08 13:02:00,38.0,11.0,-100.00,NNE,27,2.0,7.0,32,0.00,,,-99.99,,2013-02-08 20:02:00,
2013-02-08 13:11:00,38.0,10.0,-100.00,NE,38,4.0,8.0,31,0.00,,,-99.99,,2013-02-08 20:11:00,
2013-02-08 13:21:00,39.0,11.0,-100.00,NNE,18,3.0,6.0,31,0.00,,,-99.99,,2013-02-08 20:21:00,
2013-02-08 13:32:00,38.0,12.0,-100.00,North,4,2.0,10.0,33,0.00,,,-99.99,,2013-02-08 20:32:00,
2013-02-08 13:41:00,40.0,12.0,-100.00,North,357,1.0,4.0,32,0.00,,,-99.99,,2013-02-08 20:41:00,
2013-02-08 13:52:00,39.0,12.0,-100.00,NNE,17,3.0,7.0,32,0.00,,,-99.99,,2013-02-08 20:52:00,
2013-02-08 14:02:00,38.0,11.0,-100.00,NE,54,4.0,7.0,33,0.00,,,-99.99,,2013-02-08 21:02:00,
2013-02-08 14:11:00,39.0,11.0,-100.00,ENE,61,5.0,7.0,32,0.00,,,-99.99,,2013-02-08 21:11:00,
2013-02-08 14:22:00,39.0,11.0,-100.00,NE,40,4.0,6.0,32,0.00,,,-99.99,,2013-02-08 21:22:00,
2013-02-08 14:32:00,39.0,11.0,-100.00,NNE,27,4.0,6.0,31,0.00,,,-99.99,,2013-02-08 21:32:00,
2013-02-08 14:42:00,39.0,10.0,-100.00,NE,34,4.0,7.0,30,0.00,,,-99.99,,2013-02-08 21:42:00,
2013-02-08 14:52:00,40.0,9.0,-100.00,ENE,68,6.0,8.0,27,0.00,,,-99.99,,2013-02-08 21:52:00,
2013-02-08 15:02:00,40.0,9.0,-100.00,NE,56,5.0,9.0,27,0.00,,,-99.99,,2013-02-08 22:02:00,
2013-02-08 15:11:00,40.0,7.0,-100.00,NE,52,5.0,8.0,26,0.00,,,-99.99,,2013-02-08 22:11:00,
2013-02-08 15:21:00,39.0,8.0,-100.00,NE,35,4.0,7.0,27,0.00,,,-99.99,,2013-02-08 22:21:00,
2013-02-08 15:32:00,39.0,8.0,-100.00,NE,40,4.0,6.0,27,0.00,,,-99.99,,2013-02-08 22:32:00,
2013-02-08 15:42:00,40.0,8.0,-100.00,NNE,16,0.0,3.0,27,0.00,,,-99.99,,2013-02-08 22:42:00,
2013-02-08 15:51:00,40.0,8.0,-100.00,North,11,1.0,4.0,26,0.00,,,-99.99,,2013-02-08 22:51:00,
2013-02-08 16:01:00,42.0,8.0,-100.00,NNE,23,1.0,4.0,25,0.00,,,-99.99,,2013-02-08 23:01:00,
2013-02-08 16:11:00,42.0,9.0,-100.00,North,360,1.0,4.0,25,0.00,,,-99.99,,2013-02-08 23:11:00,
2013-02-08 16:21:00,41.0,9.0,-100.00,ENE,62,3.0,7.0,26,0.00,,,-99.99,,2013-02-08 23:21:00,
2013-02-08 16:32:00,40.0,11.0,-100.00,ENE,68,6.0,10.0,29,0.00,,,-99.99,,2013-02-08 23:32:00,
2013-02-08 16:41:00,39.0,10.0,-100.00,NE,45,7.0,12.0,29,0.00,,,-99.99,,2013-02-08 23:41:00,
2013-02-08 16:52:00,38.0,2.0,-100.00,East,86,7.0,11.0,21,0.00,,,-99.99,,2013-02-08 23:52:00,
2013-02-08 17:02:00,37.0,2.0,-100.00,SE,130,9.0,16.0,22,0.00,,,-99.99,,2013-02-09 00:02:00,
2013-02-08 17:11:00,37.0,0.0,-100.00,SE,140,12.0,19.0,20,0.00,,,-99.99,,2013-02-09 00:11:00,
2013-02-08 17:21:00,36.0,0.0,-100.00,SSE,151,11.0,18.0,21,0.00,,,-99.99,,2013-02-09 00:21:00,
2013-02-08 17:32:00,36.0,1.0,-100.00,SSE,148,11.0,16.0,22,0.00,,,-99.99,,2013-02-09 00:32:00,
2013-02-08 17:42:00,35.0,2.0,-100.00,SSE,148,9.0,14.0,24,0.00,,,-99.99,,2013-02-09 00:42:00,
2013-02-08 17:52:00,35.0,3.0,-100.00,SE,145,7.0,11.0,25,0.00,,,-99.99,,2013-02-09 00:52:00,
2013-02-08 18:01:00,34.0,4.0,-100.00,SE,137,4.0,7.0,27,0.00,,,-99.99,,2013-02-09 01:01:00,
2013-02-08 18:11:00,34.0,3.0,-100.00,SE,128,3.0,7.0,26,0.00,,,-99.99,,2013-02-09 01:11:00,
2013-02-08 18:21:00,34.0,3.0,-100.00,SSE,160,11.0,18.0,26,0.00,,,-99.99,,2013-02-09 01:21:00,
2013-02-08 18:32:00,34.0,4.0,-100.00,SSE,161,13.0,19.0,27,0.00,,,-99.99,,2013-02-09 01:32:00,
2013-02-08 18:41:00,34.0,4.0,-100.00,SSE,165,16.0,21.0,28,0.00,,,-99.99,,2013-02-09 01:41:00,
2013-02-08 18:52:00,33.0,5.0,-100.00,South,171,16.0,22.0,29,0.00,,,-99.99,,2013-02-09 01:52:00,
2013-02-08 19:01:00,34.0,6.0,-100.00,SSE,168,16.0,22.0,30,0.00,,,-99.99,,2013-02-09 02:01:00,
2013-02-08 19:11:00,34.0,6.0,-100.00,SSE,164,15.0,20.0,30,0.00,,,-99.99,,2013-02-09 02:11:00,
2013-02-08 19:21:00,34.0,6.0,-100.00,SSE,164,14.0,19.0,31,0.00,,,-99.99,,2013-02-09 02:21:00,
2013-02-08 19:32:00,33.0,6.0,-100.00,SSE,162,12.0,17.0,31,0.00,,,-99.99,,2013-02-09 02:32:00,
2013-02-08 19:41:00,34.0,7.0,-100.00,SE,145,10.0,16.0,32,0.00,,,-99.99,,2013-02-09 02:41:00,
2013-02-08 19:52:00,31.0,6.0,-100.00,ESE,103,6.0,11.0,34,0.00,,,-99.99,,2013-02-09 02:52:00,
2013-02-08 20:02:00,31.0,6.0,-100.00,ESE,117,7.0,14.0,34,0.00,,,-99.99,,2013-02-09 03:02:00,
2013-02-08 20:11:00,31.0,6.0,-100.00,East,99,9.0,16.0,34,0.00,,,-99.99,,2013-02-09 03:11:00,
2013-02-08 20:21:00,30.0,7.0,-100.00,ESE,107,10.0,17.0,36,0.00,,,-99.99,,2013-02-09 03:21:00,
2013-02-08 20:32:00,30.0,7.0,-100.00,SE,127,6.0,8.0,38,0.00,,,-99.99,,2013-02-09 03:32:00,
2013-02-08 20:42:00,29.0,7.0,-100.00,SE,136,5.0,7.0,38,0.00,,,-99.99,,2013-02-09 03:42:00,
2013-02-08 20:52:00,29.0,7.0,-100.00,SSE,147,4.0,6.0,39,0.00,,,-99.99,,2013-02-09 03:52:00,
2013-02-08 21:02:00,29.0,8.0,-100.00,ESE,114,4.0,7.0,40,0.00,,,-99.99,,2013-02-09 04:02:00,
2013-02-08 21:11:00,28.0,7.0,-100.00,SSE,147,6.0,9.0,41,0.00,,,-99.99,,2013-02-09 04:11:00,
2013-02-08 21:23:00,28.0,7.0,-100.00,SSE,147,7.0,9.0,40,0.00,,,-99.99,,2013-02-09 04:23:00,
2013-02-08 21:32:00,29.0,6.0,-100.00,SSE,158,8.0,11.0,38,0.00,,,-99.99,,2013-02-09 04:32:00,
2013-02-08 21:42:00,29.0,6.0,-100.00,SSE,158,9.0,12.0,36,0.00,,,-99.99,,2013-02-09 04:42:00,
2013-02-08 21:52:00,29.0,6.0,-100.00,SSE,155,8.0,12.0,37,0.00,,,-99.99,,2013-02-09 04:52:00,
2013-02-08 22:02:00,30.0,6.0,-100.00,SSE,151,9.0,12.0,35,0.00,,,-99.99,,2013-02-09 05:02:00,
2013-02-08 22:12:00,30.0,6.0,-100.00,SSE,155,9.0,11.0,34,0.00,,,-99.99,,2013-02-09 05:12:00,
2013-02-08 22:22:00,30.0,6.0,-100.00,SSE,150,8.0,12.0,35,0.00,,,-99.99,,2013-02-09 05:22:00,
2013-02-08 22:32:00,31.0,6.0,-100.00,SSE,157,9.0,12.0,34,0.00,,,-99.99,,2013-02-09 05:32:00,
2013-02-08 22:41:00,31.0,17.0,-100.00,SSE,168,10.0,17.0,55,0.00,,,-99.99,,2013-02-09 05:41:00,
2013-02-08 22:52:00,29.0,19.0,-100.00,South,191,12.0,17.0,65,0.00,,,-99.99,,2013-02-09 05:52:00,
2013-02-08 23:01:00,29.0,19.0,-100.00,SSW,206,12.0,16.0,63,0.00,,,-99.99,,2013-02-09 06:01:00,
2013-02-08 23:11:00,29.0,20.0,-100.00,SSW,206,11.0,14.0,67,0.01,,,-99.99,,2013-02-09 06:11:00,
2013-02-08 23:21:00,27.0,22.0,-100.00,SSW,205,7.0,11.0,80,0.00,,,-99.99,,2013-02-09 06:21:00,
2013-02-08 23:31:00,27.0,21.0,-100.00,SW,223,6.0,9.0,78,0.00,,,-99.99,,2013-02-09 06:31:00,
2013-02-08 23:41:00,27.0,20.0,-100.00,WSW,239,3.0,7.0,76,0.00,,,-99.99,,2013-02-09 06:41:00,
2013-02-08 23:51:00,27.0,21.0,-100.00,WSW,247,7.0,9.0,76,0.00,,,-99.99,,2013-02-09 06:51:00,